Location: Sebastopol
(38.4021°N, 122.8239°W)
Time: 14:37:14
(UTC+00:00)

BREEZE-M DEB (TANK) - Pass Details

Date: 29 October 2020
Orbit: 313 x 13935 km, 49.6° (Epoch: 30 November)

Event Time Altitude Azimuth Distance (km) Brightness Sun altitude
Exits shadow 12:26:04 48° 311° (NW) 1,323 4.3 -25.8°
Maximum altitude 12:27:55 85° 36° (NE) 1,308 4.5 -25.4°
Drops below altitude 10° 12:46:29 10° 127° (SE) 7,978 9.4 -21.8°
Sets 12:58:09 0° 129° (SE) 11,482 10.3 -19.5°
